EWS-G2 (GOES 15)

Last updated on Thu Apr 09 2026 00:02:23 GMT+0000 (Coordinated Universal Time)

1 36411U 10008A 26098.53846630 .00000025 00000+0 00000+0 0 9999 2 36411 1.0935 84.2142 0003581 18.7880 350.9141 1.00271925 58941
UTC large
Height (km)
Speed (km/s)
/
Latitude / Longitude
Inclination (degrees)
Orbital Period (minutes)
Azimuth
Elevation
Range (km)
Doppler Factor

Next 0 passes for location: London (51.5072 / 0.1276)

Sorry there are no passes over London.